Alexander City, AL

8:38 PM CDT on April 19, 2018 (GMT -0500)
Russell

Weather History for KALX - February, 2014

Change the Weather History Date:

Monday, February 3, 2014

  Actual Average (KAUO) Record (KAUO)
Temperature  
Mean Temperature 55 °F -  
Max Temperature 70 °F 58 °F 78 °F (1989)
Min Temperature 40 °F 34 °F 15 °F (1979)
Degree Days  
Heating Degree Days 10    
Growing Degree Days 5 (Base 50)    
Moisture  
Dew Point 46 °F    
Average Humidity 79    
Maximum Humidity 86    
Minimum Humidity 66    
Precipitation  
Precipitation 0.37 in - - ()
Sea Level Pressure  
Sea Level Pressure 30.08 in    
Wind  
Wind Speed 9 mph (NNW)    
Max Wind Speed 16 mph    
Max Gust Speed 32 mph    
Visibility 10 miles    
Events Rain    
Averages and records for this station are not official NWS values.
T = Trace of Precipitation, MM = Missing Value Source: NWS Daily Summary

Daily Weather History Graph

Daily Weather History Graph

Search for Another Location

Airport or City:

Astronomy

Feb. 03, 2014 Rise Set
Actual Time 6:37 AM CST 5:18 PM CST
Civil Twilight 6:11 AM CST 5:44 PM CST
Nautical Twilight 5:42 AM CST 6:13 PM CST
Astronomical Twilight 5:13 AM CST 6:42 PM CST
Moon 8:55 AM CST (2/3) 9:49 PM CST (2/3)
Length of Visible Light 11h 32m
Length of Day
10h 40m
Waxing Crescent, 20% of the Moon is Illuminated
Feb 3
Waxing Crescent
Feb 6
First Quarter
Feb 14
Full
Feb 22
Last Quarter
Mar 1
New

Hourly Weather History & Observations

Time (CST) Temp. Windchill Dew Point Humidity Pressure Visibility Wind Dir Wind Speed Gust Speed Precip Events Conditions
12:15 AM 70.2 °F - 62.2 °F 76% 29.93 in 10.0 mi South 11.5 mph 21.9 mph N/A   Overcast
12:35 AM 70.7 °F - 62.8 °F 76% 29.93 in 10.0 mi South 11.5 mph 18.4 mph N/A   Overcast
12:55 AM 70.7 °F - 63.0 °F 76% 29.92 in 10.0 mi South 11.5 mph 19.6 mph N/A   Overcast
1:15 AM 70.7 °F - 63.1 °F 77% 29.91 in 10.0 mi South 9.2 mph 21.9 mph N/A   Overcast
1:35 AM 70.7 °F - 63.0 °F 76% 29.91 in 10.0 mi South 13.8 mph 25.3 mph N/A   Overcast
1:55 AM 70.7 °F - 63.3 °F 77% 29.90 in 10.0 mi South 9.2 mph 20.7 mph N/A   Overcast
2:15 AM 70.7 °F - 63.5 °F 78% 29.90 in 10.0 mi South 12.7 mph 21.9 mph N/A   Overcast
2:35 AM 70.7 °F - 63.7 °F 78% 29.90 in 10.0 mi SSW 12.7 mph 18.4 mph N/A   Overcast
2:55 AM 66.9 °F - 60.6 °F 80% 29.95 in 3.0 mi West 16.1 mph 32.2 mph 0.15 in Rain Heavy Rain
3:15 AM 62.4 °F - 56.7 °F 81% 29.96 in 10.0 mi WNW 6.9 mph - 0.01 in Rain Light Rain
3:35 AM 61.5 °F - 56.3 °F 83% 29.96 in 10.0 mi NW 3.5 mph - 0.04 in Rain Light Rain
3:55 AM 60.4 °F - 55.8 °F 85% 29.97 in 10.0 mi Calm Calm - 0.07 in Rain Light Rain
4:15 AM 60.3 °F - 55.6 °F 85% 29.98 in 5.0 mi Calm Calm - 0.09 in Rain Rain
4:35 AM 60.3 °F - 55.8 °F 85% 29.99 in 10.0 mi West 4.6 mph - 0.10 in Rain Rain
4:55 AM 60.3 °F - 55.8 °F 85% 29.98 in 10.0 mi Calm Calm - 0.14 in Rain Light Rain
5:15 AM 57.9 °F - 53.4 °F 85% 29.97 in 7.0 mi Calm Calm - N/A   Mostly Cloudy
5:35 AM 60.3 °F - 55.9 °F 86% 29.98 in 10.0 mi Calm Calm - 0.01 in   Overcast
5:55 AM 60.3 °F - 55.9 °F 86% 30.01 in 10.0 mi West 11.5 mph 16.1 mph 0.01 in   Overcast
6:15 AM 55.4 °F - 50.9 °F 85% 30.03 in 10.0 mi WNW 9.2 mph 18.4 mph N/A   Light Drizzle
6:35 AM 52.7 °F - 48.2 °F 85% 30.06 in 10.0 mi WNW 10.4 mph - N/A   Overcast
6:55 AM 50.2 °F - 45.7 °F 85% 30.06 in 10.0 mi NW 9.2 mph - N/A   Overcast
7:15 AM 50.2 °F - 45.7 °F 85% 30.09 in 10.0 mi NW 12.7 mph 16.1 mph N/A   Overcast
7:35 AM 47.7 °F - 43.2 °F 84% 30.09 in 10.0 mi NNW 8.1 mph 16.1 mph N/A   Overcast
7:55 AM 47.7 °F - 43.2 °F 84% 30.10 in 10.0 mi NNW 9.2 mph - N/A   Overcast
8:15 AM 47.7 °F - 42.8 °F 83% 30.11 in 10.0 mi NNW 8.1 mph - N/A   Overcast
8:35 AM 47.7 °F - 43.0 °F 84% 30.11 in 10.0 mi NNW 8.1 mph - N/A   Overcast
8:55 AM 47.8 °F - 43.0 °F 83% 30.12 in 10.0 mi NNW 10.4 mph - N/A   Overcast
9:15 AM 50.2 °F - 44.6 °F 81% 30.13 in 10.0 mi North 10.4 mph - N/A   Overcast
9:35 AM 47.7 °F - 42.1 °F 81% 30.14 in 10.0 mi NNW 8.1 mph - N/A   Overcast
9:55 AM 47.7 °F - 42.1 °F 81% 30.15 in 10.0 mi NW 9.2 mph - N/A   Overcast
10:15 AM 49.6 °F - 44.1 °F 81% 30.14 in 10.0 mi NNW 6.9 mph - N/A   Overcast
10:35 AM 50.2 °F - 44.2 °F 80% 30.15 in 10.0 mi NW 8.1 mph - N/A   Overcast
10:55 AM 50.2 °F - 43.9 °F 79% 30.15 in 10.0 mi NNW 8.1 mph - N/A   Overcast
11:15 AM 50.2 °F - 43.7 °F 78% 30.14 in 10.0 mi NNW 11.5 mph - N/A   Overcast
11:35 AM 50.2 °F - 43.5 °F 78% 30.13 in 10.0 mi NNW 11.5 mph - N/A   Overcast
11:55 AM 50.2 °F - 43.7 °F 78% 30.12 in 10.0 mi NW 10.4 mph - N/A   Overcast
12:15 PM 50.2 °F - 43.2 °F 77% 30.12 in 10.0 mi North 8.1 mph - N/A   Overcast
12:35 PM 50.2 °F - 42.4 °F 75% 30.12 in 10.0 mi North 8.1 mph - N/A   Overcast
12:55 PM 50.2 °F - 41.7 °F 73% 30.11 in 10.0 mi North 6.9 mph - N/A   Overcast
1:15 PM 50.2 °F - 41.2 °F 71% 30.11 in 10.0 mi North 4.6 mph - N/A   Overcast
1:35 PM 50.2 °F - 41.0 °F 71% 30.11 in 10.0 mi NNW 8.1 mph - N/A   Overcast
1:55 PM 50.2 °F - 40.3 °F 69% 30.11 in 10.0 mi NNE 4.6 mph - N/A   Overcast
2:15 PM 52.7 °F - 41.7 °F 66% 30.11 in 10.0 mi North 6.9 mph - N/A   Mostly Cloudy
2:35 PM 52.7 °F - 41.5 °F 66% 30.11 in 10.0 mi NNW 9.2 mph - N/A   Mostly Cloudy
2:55 PM 51.4 °F - 40.8 °F 67% 30.11 in 10.0 mi NW 8.1 mph - N/A   Scattered Clouds
3:15 PM 50.2 °F - 40.1 °F 68% 30.11 in 10.0 mi NNW 9.2 mph - N/A   Clear
3:35 PM 51.6 °F - 41.2 °F 68% 30.12 in 10.0 mi NNW 10.4 mph 19.6 mph N/A   Clear
3:55 PM 50.2 °F - 40.1 °F 68% 30.12 in 10.0 mi NNW 9.2 mph 24.2 mph N/A   Scattered Clouds
4:15 PM 50.2 °F - 41.0 °F 71% 30.13 in 10.0 mi NW 9.2 mph - N/A   Mostly Cloudy
4:35 PM 50.2 °F - 42.1 °F 74% 30.13 in 10.0 mi NNW 9.2 mph - N/A   Overcast
4:55 PM 50.2 °F - 42.8 °F 76% 30.13 in 10.0 mi NNW 9.2 mph - N/A   Scattered Clouds
5:15 PM 47.7 °F - 41.0 °F 78% 30.14 in 10.0 mi North 6.9 mph - N/A   Clear
5:35 PM 47.7 °F - 41.2 °F 78% 30.14 in 10.0 mi North 8.1 mph - N/A   Clear
5:55 PM 47.7 °F - 41.4 °F 79% 30.14 in 10.0 mi North 8.1 mph - N/A   Mostly Cloudy
6:15 PM 47.7 °F - 41.4 °F 79% 30.14 in 10.0 mi North 8.1 mph - N/A   Overcast
6:35 PM 47.7 °F - 41.2 °F 78% 30.14 in 10.0 mi North 10.4 mph - N/A   Overcast
6:55 PM 47.7 °F - 41.2 °F 78% 30.15 in 10.0 mi North 10.4 mph - N/A   Overcast
7:15 PM 45.3 °F 39.7 °F 39.2 °F 79% 30.16 in 10.0 mi North 11.5 mph - N/A   Overcast
7:35 PM 45.0 °F 38.9 °F 39.4 °F 81% 30.16 in 10.0 mi North 12.7 mph 19.6 mph N/A   Overcast
7:55 PM 44.2 °F 39.2 °F 38.5 °F 80% 30.16 in 10.0 mi North 9.2 mph - N/A   Overcast
8:15 PM 44.2 °F 38.8 °F 38.5 °F 80% 30.16 in 10.0 mi NNE 10.4 mph - N/A   Overcast
8:35 PM 44.2 °F 40.3 °F 38.7 °F 81% 30.17 in 10.0 mi NNE 6.9 mph - N/A   Overcast
8:55 PM 44.8 °F 41.0 °F 39.2 °F 81% 30.18 in 10.0 mi North 6.9 mph - N/A   Overcast
9:15 PM 44.2 °F 40.3 °F 38.5 °F 80% 30.17 in 10.0 mi North 6.9 mph - N/A   Overcast
9:35 PM 45.0 °F 42.6 °F 39.2 °F 80% 30.17 in 10.0 mi NNE 4.6 mph - N/A   Overcast
9:55 PM 44.2 °F 42.7 °F 38.5 °F 80% 30.17 in 10.0 mi NNE 3.5 mph - N/A   Mostly Cloudy
10:15 PM 43.9 °F - 38.5 °F 81% 30.17 in 10.0 mi Calm Calm - N/A   Scattered Clouds
10:35 PM 43.3 °F - 38.3 °F 82% 30.16 in 10.0 mi Calm Calm - N/A   Clear
10:55 PM 42.8 °F - 37.9 °F 83% 30.15 in 10.0 mi Calm Calm - N/A   Clear
11:15 PM 41.4 °F - 36.7 °F 83% 30.15 in 10.0 mi Calm Calm - N/A   Clear
11:35 PM 40.5 °F - 36.1 °F 85% 30.14 in 10.0 mi Calm Calm - N/A   Clear
11:55 PM 40.8 °F - 36.5 °F 85% 30.14 in 7.0 mi Calm Calm - N/A   Clear